Location: Ferchesar
(52.6477°N, 12.4298°E)
Time: 20:41:50
(UTC+02:00)

Transit 4A - Pass Details

Date: 06 March 2021
Orbit: 868 x 976 km, 66.8° (Epoch: 10 April)

Event Time Altitude Azimuth Distance (km) Brightness Sun altitude
Rises 10:52:14 0° 225° (SW) 3,659 11.2 28.8°
Reaches altitude 10° 10:54:49 10° 228° (SW) 2,708 10.6 29.0°
Maximum altitude 11:01:09 72° 313° (NW) 1,006 8.4 29.4°
Drops below altitude 10° 11:07:23 10° 38° (NE) 2,661 10.1 29.8°
Sets 11:09:54 0° 40° (NE) 3,592 10.7 29.9°
